Location: Eindhoven
(51.4416°N, 5.4697°E)
Time: 11:22:04
(UTC+01:00)

N. Korean satellite - Visible Passes

Search period start: 18 February 2019 00:00
Search period end: 28 February 2019 00:00
Orbit: 457 x 510 km, 97.2° (Epoch: 17 February)

Date Brightness Start Highest point End Pass type
(mag) Time Alt. Az. Time Alt. Az. Time Alt. Az.
18 Feb 8.7 06:24:45 10° NNE 06:27:54 30° E 06:30:59 10° SSE visible
18 Feb 9.2 18:38:52 10° SSW 18:42:04 27° W 18:45:14 10° NW visible
19 Feb 9.8 06:00:37 10° NE 06:02:58 17° E 06:05:18 10° SE visible
21 Feb 7.5 06:43:46 10° NNE 06:47:11 50° E 06:50:32 10° S visible
21 Feb 10.0 18:58:54 10° SW 19:01:25 18° W 19:03:55 10° NW visible
22 Feb 9.0 06:19:19 10° NE 06:22:19 26° E 06:25:16 10° SSE visible
22 Feb 8.9 18:33:14 10° SSW 18:36:30 31° W 18:39:45 10° NNW visible
23 Feb 9.9 05:55:19 10° NE 05:57:22 15° E 05:59:23 10° SE visible
24 Feb 10.5 19:19:46 10° WSW 19:20:49 11° W 19:21:51 10° WNW visible
25 Feb 7.9 06:38:14 10° NNE 06:41:35 43° E 06:44:52 10° S visible
25 Feb 9.9 18:53:08 10° SW 18:55:49 19° W 18:58:29 10° NW visible
26 Feb 9.2 06:13:51 10° NE 06:16:41 23° E 06:19:30 10° SSE visible
27 Feb 10.0 05:50:02 10° ENE 05:51:43 13° E 05:53:23 10° ESE visible
